GFSNGP_sfc_wetblb_159.txt.gz
Wetbulb
54.10 54.76 55.48 54.69 53.46 53.76 53.15 53.71 51.63 53.40 54.04 58.77 61.07 61.38 62.67 64.59 65.78 65.46 66.00 66.66 67.92 68.44 69.56 70.40 71.79 72.53 73.41 74.59 75.33 74.62 73.03 76.37 76.21 76.61 76.26 76.09 75.29 77.51 77.41 77.74 77.53 77.46 77.21 77.29
52.70 55.00 54.92 53.00 53.85 54.23 54.52 54.98 54.53 54.71 54.47 59.38 62.18 62.91 63.09 63.95 65.03 65.02 65.65 65.41 67.18 67.82 68.62 69.36 70.66 70.87 72.15 73.15 74.28 74.19 74.39 74.57 75.89 75.76 76.64 76.14 76.96 77.04 78.07 77.90 77.79 77.82 76.79 77.04
49.08 54.52 53.92 49.98 53.16 54.02 54.50 55.51 55.47 53.12 57.05 60.43 61.07 60.93 62.50 63.78 64.81 65.32 65.92 67.16 66.96 67.72 68.51 69.39 67.41 70.19 70.27 72.05 73.14 72.93 73.73 73.72 75.71 75.42 75.61 76.02 76.33 76.23 76.53 76.80 77.02 77.06 77.01 77.05
50.20 52.16 45.58 54.47 57.09 56.33 54.66 55.64 57.25 57.57 60.23 61.33 61.87 62.79 64.26 65.55 64.97 65.82 66.60 67.75 67.72 67.79 68.08 69.12 68.97 67.76 68.00 68.67 69.62 70.39 70.43 69.69 72.18 73.13 74.11 74.68 74.54 74.47 75.85 76.48 75.65 77.36 76.81 77.14
49.34 48.96 51.97 53.73 55.48 55.64 54.40 53.61 57.88 57.77 59.10 61.39 62.47 63.13 63.62 65.96 66.83 67.93 68.53 69.01 68.84 69.44 69.04 68.86 68.16 69.36 68.69 68.03 67.16 67.62 65.68 66.80 70.91 70.42 72.15 72.21 72.26 73.10 75.16 75.10 75.04 75.57 75.94 75.65
51.14 47.87 43.94 54.00 57.32 58.77 57.56 51.76 58.64 59.04 59.21 61.77 62.90 58.50 60.29 67.24 67.99 69.22 70.15 70.02 69.10 69.76 69.50 69.59 69.89 70.24 68.03 67.02 67.40 66.96 67.12 67.85 68.04 69.13 70.46 71.03 71.87 72.63 73.12 73.60 72.06 70.17 69.75 71.93
50.22 48.59 52.27 57.21 57.23 59.16 50.57 52.32 59.57 59.60 59.91 62.71 61.36 64.82 67.25 67.89 68.55 69.82 68.60 69.22 69.49 68.94 67.99 68.27 69.42 69.42 69.08 69.10 69.68 70.96 70.60 70.01 69.10 68.38 69.41 69.15 70.35 71.30 71.15 70.47 68.57 69.03 68.95 68.06
51.99 49.86 47.65 58.46 58.32 54.93 57.31 61.06 60.24 60.60 61.86 63.20 65.25 67.14 67.05 68.07 68.54 68.99 68.77 68.92 69.56 68.64 68.46 68.92 69.27 69.15 68.82 68.36 69.86 71.01 71.02 70.73 70.52 70.09 69.77 69.56 70.69 70.29 69.23 68.71 68.23 66.32 63.65 62.24
53.65 53.47 61.88 61.76 59.71 61.64 60.77 61.47 61.12 61.85 63.75 64.98 66.67 66.20 66.33 66.92 67.06 67.32 66.25 65.77 66.17 65.80 65.96 66.94 67.64 68.37 67.66 68.66 68.63 69.43 68.82 67.66 65.89 65.38 66.09 66.56 66.13 65.86 65.24 65.40 64.43 62.54 61.67 60.25
55.56 57.13 59.04 60.19 61.28 61.14 61.99 61.37 62.94 63.71 64.83 66.27 65.85 66.28 66.06 66.11 65.98 65.69 66.12 65.32 65.63 65.34 64.91 65.58 67.05 66.18 67.83 68.58 68.31 68.33 65.89 65.96 64.27 62.57 63.64 65.57 65.78 66.79 65.58 64.98 64.03 63.13 63.28 62.45
56.51 59.02 60.13 60.94 61.23 62.97 63.02 63.85 63.23 64.93 66.18 66.32 66.43 66.17 66.21 65.89 66.01 65.80 66.03 66.12 66.14 65.27 64.49 65.14 65.63 65.78 66.25 66.60 67.47 64.63 64.21 65.43 66.23 65.04 62.65 59.44 59.11 58.63 63.66 57.81 55.96 62.32 63.55 63.88
55.07 60.97 61.44 61.47 63.00 64.11 63.83 63.71 64.33 65.43 65.83 66.79 67.06 66.13 66.57 66.07 66.32 66.42 66.27 66.42 65.96 65.53 64.91 65.10 64.83 66.30 66.04 66.60 66.50 63.68 61.55 62.06 64.37 65.57 65.46 63.97 60.82 59.48 47.11 46.95 44.96 44.14 45.49 55.44
58.23 61.34 63.42 64.33 64.65 64.84 64.37 64.69 65.34 66.23 66.71 66.50 66.66 66.68 66.29 66.02 66.71 63.87 66.57 66.31 65.59 64.43 65.09 65.19 65.62 65.58 66.66 66.17 65.84 64.51 64.05 65.58 65.37 64.27 65.37 63.89 63.37 62.43 60.83 53.26 45.77 44.34 43.66 44.59
61.63 61.41 62.04 63.02 61.76 63.90 65.21 65.49 64.60 66.80 67.14 66.25 65.56 65.72 65.23 65.21 65.98 65.23 65.15 65.66 64.87 63.91 64.30 65.00 65.42 65.44 66.88 66.79 65.59 64.69 66.00 57.55 62.92 63.35 62.82 62.45 63.16 63.76 62.93 62.10 61.72 60.64 48.41 50.12
60.72 61.68 63.07 63.84 64.68 64.55 65.08 65.56 64.98 64.38 64.45 64.19 64.72 64.59 64.13 63.82 63.98 64.52 65.24 64.85 63.86 64.26 64.49 65.95 64.99 65.18 66.15 66.26 67.13 66.40 63.92 64.01 64.61 64.83 64.64 63.56 63.68 64.08 63.92 63.08 62.61 61.65 59.56 51.39
61.10 62.23 62.39 63.18 63.70 63.17 64.27 64.20 63.70 63.82 63.28 63.60 63.71 63.26 63.53 64.25 65.22 65.35 64.38 63.55 63.13 62.81 64.20 65.86 65.65 67.08 67.30 66.70 66.38 65.83 65.63 61.47 62.69 64.74 63.79 64.19 64.36 63.97 61.79 62.79 62.74 62.02 61.97 62.20
59.24 59.01 60.75 62.18 63.33 63.78 63.88 64.13 64.07 63.78 63.61 63.37 62.99 64.21 64.86 64.85 65.24 63.94 63.27 63.39 63.83 64.87 65.08 65.44 65.86 67.23 67.78 67.65 66.39 64.37 65.71 64.98 63.95 64.69 63.92 64.32 62.81 62.34 62.60 60.85 59.51 59.36 59.11 56.39
61.65 61.54 62.19 62.54 63.51 63.89 63.50 63.81 63.63 64.15 63.53 63.66 64.13 65.06 65.22 65.39 64.46 64.09 63.95 64.30 64.10 64.46 65.03 65.93 66.36 67.24 66.78 66.17 65.10 63.66 63.76 63.41 63.94 63.29 62.81 62.46 62.65 62.21 61.50 61.18 60.51 59.48 58.39 55.37
60.61 61.16 62.55 62.93 64.39 63.80 65.20 63.87 63.98 64.76 64.96 64.64 64.73 65.03 66.09 66.23 65.93 65.40 65.21 64.56 64.09 63.07 64.03 65.78 62.64 64.02 64.88 64.48 63.23 62.20 62.45 62.22 62.53 62.53 62.40 59.70 60.93 61.88 61.42 61.51 60.78 60.56 60.18 58.32
60.54 61.91 62.66 63.20 63.87 64.21 64.77 64.10 63.50 65.38 64.98 64.84 65.69 65.37 65.63 66.12 66.75 66.16 65.98 64.97 65.33 64.49 65.48 65.40 65.20 64.08 65.25 64.95 62.61 64.16 61.55 61.44 61.80 61.91 61.98 61.09 61.29 61.57 62.30 55.52 59.37 61.12 61.08 61.03
61.00 61.76 61.62 62.43 62.60 64.35 65.16 66.21 65.16 65.48 66.91 67.31 66.83 67.37 67.79 67.90 67.27 66.84 65.91 64.29 66.73 65.60 65.74 62.87 64.67 63.80 64.50 64.59 63.05 63.38 63.32 62.07 62.07 61.49 61.35 60.52 61.34 61.02 61.48 61.83 61.37 60.13 60.56 61.03
61.73 61.31 61.26 62.29 62.60 63.90 65.13 65.11 65.35 65.63 67.12 67.58 67.87 68.46 68.12 67.53 67.17 66.98 67.61 66.38 66.74 56.79 64.48 65.02 64.47 62.76 63.99 62.48 62.67 61.37 62.18 62.19 62.15 62.11 62.00 62.08 61.91 61.74 61.74 61.96 61.66 61.72 61.55 61.63
61.73 61.96 62.25 63.37 62.99 63.31 64.07 64.07 64.91 66.09 65.87 67.35 67.95 68.68 67.85 66.96 67.06 65.50 64.52 68.53 67.45 60.99 65.20 65.05 61.84 58.08 58.12 63.37 63.70 63.85 63.54 62.78 61.93 61.94 62.10 62.39 62.38 62.03 61.83 61.63 61.98 62.05 61.99 62.20
62.35 63.24 63.12 63.67 63.81 63.80 63.50 64.71 64.26 65.63 68.13 68.65 67.62 68.50 67.33 66.13 66.33 67.42 67.38 61.44 59.09 60.42 64.60 64.59 61.20 56.56 56.40 64.18 64.19 64.39 64.19 64.16 64.16 63.98 63.90 55.75 63.69 63.43 62.91 62.74 62.08 62.03 62.19 61.06
64.51 63.97 64.01 63.57 63.17 62.53 64.40 65.70 64.90 64.99 66.45 68.04 67.91 68.39 68.45 67.74 65.45 65.88 66.58 66.37 56.58 62.01 65.25 57.03 55.96 55.34 63.66 64.71 64.63 64.41 64.71 65.07 65.14 64.98 64.64 64.19 64.04 63.72 63.87 63.56 63.29 63.06 62.69 62.88
63.94 63.79 63.74 64.95 63.43 62.66 63.04 63.15 62.98 62.85 64.45 64.08 65.50 66.62 66.75 66.87 66.49 65.59 66.31 64.43 66.17 62.02 65.42 65.13 64.94 64.23 64.92 64.68 64.59 64.69 64.68 64.85 64.57 65.14 63.89 65.10 64.92 64.85 64.53 64.30 63.49 62.69 63.75 63.42
62.84 56.18 63.40 63.44 63.90 63.13 62.17 62.50 63.07 62.01 62.49 63.41 63.77 65.25 65.12 65.06 64.98 63.47 61.27 66.22 66.24 65.24 65.29 65.07 65.20 62.97 65.23 64.88 64.40 64.33 64.23 64.42 58.54 63.93 64.89 63.02 62.68 65.81 65.42 64.05 63.57 64.52 64.85 63.88

GFSNGP_sfc_wetblb_162.txt.gz
Wetbulb
53.31 54.46 54.01 53.29 53.77 54.29 51.51 52.59 50.25 52.81 52.64 57.74 60.32 61.04 61.77 63.97 64.78 65.40 65.81 67.02 68.08 68.35 69.26 70.97 71.58 73.44 73.95 75.69 75.21 76.48 75.30 75.07 72.31 72.78 72.39 73.46 74.29 74.68 74.26 74.96 75.01 75.50 75.17 75.89
51.17 53.47 53.65 51.89 54.17 53.98 53.28 54.01 53.69 53.80 53.86 59.43 61.90 62.43 63.14 63.98 64.82 64.76 65.75 65.88 67.69 67.84 68.82 68.23 69.86 71.41 73.14 73.58 74.16 73.98 72.87 72.69 70.58 70.80 66.02 64.40 65.53 74.33 75.44 75.64 74.98 75.02 75.05 75.09
49.19 52.38 51.80 46.15 52.36 54.86 54.99 55.90 55.30 52.44 56.75 61.78 60.77 61.20 62.54 63.69 64.55 64.87 65.89 66.52 67.23 67.31 68.15 68.60 69.12 70.95 70.64 71.99 73.58 73.31 72.90 73.41 70.62 70.64 67.08 68.98 69.85 73.98 74.96 74.06 75.13 75.55 75.39 75.25
50.20 52.43 45.26 53.27 57.37 57.19 54.70 55.40 55.98 56.64 59.58 60.64 62.24 62.44 63.09 64.55 64.63 65.43 66.43 67.81 67.81 67.49 67.67 67.60 68.49 68.11 68.02 70.91 71.39 71.07 69.34 69.84 70.41 70.26 71.42 73.24 74.23 74.31 75.96 75.57 73.60 73.72 74.09 75.08
49.19 48.08 52.10 53.22 55.03 55.98 54.22 54.09 56.88 56.34 59.20 61.18 62.47 62.69 62.68 64.69 65.64 67.10 67.22 68.64 68.74 69.29 68.42 69.58 68.78 69.36 68.64 67.21 67.12 67.06 66.15 67.04 68.12 67.83 67.47 69.02 70.05 72.48 74.63 75.62 75.34 75.49 75.08 74.03
51.39 46.98 44.22 54.10 57.43 58.85 58.26 51.01 58.02 57.88 58.74 61.24 61.87 57.03 59.82 64.92 66.30 67.64 68.64 69.00 68.80 68.58 68.84 68.61 68.50 68.19 68.17 67.79 66.43 64.51 67.05 67.51 66.95 68.23 68.93 68.32 68.80 70.57 73.43 73.40 71.88 71.51 70.50 70.41
50.39 49.15 50.92 57.38 58.27 58.41 47.69 50.84 59.62 59.32 60.34 62.68 60.97 64.06 67.19 67.64 67.90 69.81 69.92 69.67 70.33 69.13 68.60 69.45 69.74 69.69 69.21 68.87 67.90 70.15 69.62 69.77 69.63 69.23 68.39 68.52 68.01 69.29 71.07 70.58 69.80 69.84 68.17 66.28
52.59 49.61 47.71 59.41 58.58 53.58 57.46 60.25 60.19 61.22 63.46 64.68 67.07 67.13 67.12 67.79 68.58 68.47 68.34 68.08 68.96 68.45 68.41 69.12 70.07 69.83 70.32 69.66 70.03 71.34 70.79 70.84 71.19 70.95 69.27 68.84 68.19 68.12 69.44 69.36 67.99 66.22 65.17 63.20
52.83 53.64 61.00 62.49 60.35 59.85 60.05 62.38 61.94 62.04 62.84 67.23 66.51 66.28 67.21 67.98 68.53 67.89 68.46 68.77 69.02 68.11 67.73 68.36 68.53 68.58 68.88 69.16 69.93 70.31 69.60 67.63 66.51 67.33 67.15 67.20 67.18 66.43 65.46 65.53 64.55 62.94 62.70 62.08
55.15 58.28 59.67 60.59 61.04 62.01 61.98 61.94 62.92 62.68 63.79 65.91 66.25 66.18 66.73 67.18 66.94 66.09 65.83 65.78 65.90 66.08 65.45 65.94 67.56 67.10 68.90 68.76 69.01 68.85 66.01 65.30 64.38 64.06 64.26 65.25 65.75 65.50 64.59 64.14 63.75 62.77 62.52 62.69
52.99 59.15 61.17 60.11 60.93 60.58 61.71 62.55 62.98 63.45 64.58 66.21 66.46 65.72 66.12 66.32 66.78 66.53 66.56 66.53 66.53 66.38 65.20 65.87 66.57 66.69 67.26 67.97 67.94 65.74 66.41 65.99 65.18 64.12 62.95 59.35 56.40 54.85 62.33 55.66 53.57 63.10 62.57 63.87
47.82 53.06 55.46 59.11 61.18 61.27 62.85 62.29 63.79 64.62 65.43 66.31 67.71 67.31 67.50 66.74 67.51 67.40 67.15 67.45 67.16 66.58 65.26 66.00 65.77 66.00 66.46 67.89 67.46 64.68 64.39 66.33 66.19 65.26 64.57 62.48 59.93 57.87 47.64 47.44 45.59 44.79 45.34 56.36
52.73 55.76 56.08 59.27 61.45 62.59 64.06 63.89 64.47 65.51 66.74 66.41 67.44 67.23 67.30 67.41 67.97 65.33 67.66 65.54 64.99 64.77 65.86 66.70 66.03 65.83 66.48 67.33 66.69 65.62 65.65 66.38 65.71 63.87 64.18 63.78 63.65 62.61 59.50 53.03 46.22 44.45 44.28 44.81
56.32 54.91 54.45 57.78 59.86 64.74 64.52 64.23 64.00 65.90 66.54 66.78 66.47 67.02 66.51 66.86 66.28 66.94 66.56 66.60 66.41 64.51 66.41 64.69 65.55 66.24 67.07 67.17 66.67 65.30 65.81 58.66 64.97 64.72 63.70 63.39 63.99 64.80 63.16 62.36 61.08 58.69 48.33 50.30
58.04 60.27 61.52 62.27 62.03 63.81 64.69 64.70 64.51 65.01 65.44 65.47 66.00 65.24 65.47 66.52 65.25 66.00 67.11 66.32 64.69 63.94 66.23 65.39 65.75 65.68 67.11 67.52 66.57 66.71 65.81 64.20 65.00 65.19 64.78 63.28 64.85 64.68 63.51 63.89 63.02 60.17 57.32 51.61
58.76 60.45 61.19 61.17 60.40 64.32 64.45 64.28 64.17 64.52 64.56 64.85 64.44 64.97 65.17 65.48 65.20 65.95 66.06 65.36 63.93 63.20 66.27 66.08 65.87 66.59 66.80 66.59 66.82 66.04 65.42 63.35 62.76 65.54 64.51 64.61 63.93 63.31 63.67 63.05 62.90 62.33 61.58 60.77
56.74 55.40 59.88 61.04 61.01 63.52 63.98 64.49 65.07 64.84 64.71 64.76 65.30 65.17 65.08 64.71 65.62 65.30 64.34 63.05 66.09 66.55 67.35 66.85 66.55 67.61 66.96 66.98 66.65 65.92 65.63 65.24 63.61 64.48 64.09 64.15 63.74 63.26 63.01 62.85 63.06 63.35 62.13 57.05
60.39 60.67 62.56 62.74 64.48 63.24 64.19 64.96 65.66 65.25 64.69 64.98 65.19 64.88 65.35 65.53 64.69 64.60 64.83 64.90 65.69 65.87 66.18 67.89 67.71 67.87 67.13 67.23 66.85 66.00 65.56 64.06 64.07 64.29 64.63 64.45 63.34 62.39 61.49 61.18 60.59 59.91 58.47 55.80
61.32 61.52 62.08 62.99 63.80 65.35 65.50 65.31 65.16 64.88 65.54 64.93 65.20 65.29 66.33 66.29 65.86 65.61 65.75 64.79 64.70 65.20 65.64 67.17 62.90 64.96 66.56 66.31 63.00 62.78 62.63 61.77 62.25 62.96 62.73 60.45 61.82 61.77 61.13 61.01 60.46 60.63 58.32 55.79
60.96 61.18 61.84 63.52 64.44 61.96 61.77 63.08 66.69 65.76 65.44 65.34 65.84 66.07 66.25 66.81 67.00 66.52 66.65 65.48 65.35 64.33 67.15 65.37 65.26 64.42 66.30 64.96 62.55 62.54 62.17 61.59 61.61 61.91 63.03 61.25 60.69 61.94 62.30 55.41 58.87 60.95 60.80 59.53
60.27 60.83 62.47 62.68 62.75 64.14 64.91 64.00 61.54 61.08 60.32 65.77 65.79 66.52 66.86 67.78 67.75 67.55 66.40 63.71 67.80 67.43 66.29 62.37 65.49 62.92 64.12 64.27 62.53 61.88 63.17 60.90 60.93 61.54 61.64 60.87 61.41 60.67 61.87 62.43 60.93 60.23 60.64 62.03
61.02 61.07 61.67 62.40 63.00 63.50 62.83 61.68 61.05 61.17 60.77 60.36 66.94 67.78 67.89 67.99 67.93 67.85 68.21 66.66 67.87 57.60 64.64 65.11 64.71 63.79 64.13 62.74 63.31 60.09 60.84 62.37 62.31 62.64 62.50 62.30 61.25 61.22 61.63 61.84 62.36 62.36 61.74 62.14
61.35 62.74 62.33 63.21 63.42 64.29 62.99 60.94 61.93 61.87 60.89 59.99 67.17 67.98 67.82 67.30 67.54 66.34 65.56 69.25 67.63 60.58 65.09 65.63 61.51 58.47 58.81 63.94 63.51 62.39 61.30 62.64 61.89 62.06 62.63 63.04 62.95 62.78 62.50 62.39 62.88 63.31 64.29 63.94
61.34 62.10 64.54 63.99 63.98 64.23 65.29 65.92 64.43 64.92 64.58 68.82 69.37 69.99 68.95 66.69 67.60 68.44 68.74 62.99 60.22 59.50 64.57 64.51 59.22 56.18 56.39 63.84 64.10 64.42 64.73 64.51 64.89 64.42 65.08 55.95 64.54 64.52 63.94 63.35 62.57 62.40 62.67 61.17
64.85 64.18 63.95 63.02 60.83 62.85 66.65 67.32 66.58 66.80 67.77 68.61 69.14 69.84 69.56 69.34 67.75 67.12 65.76 67.44 57.00 61.52 64.75 56.00 55.62 55.15 62.36 64.02 64.24 64.38 64.73 65.62 66.35 66.96 65.17 65.23 64.29 64.36 64.18 64.08 63.96 64.17 64.02 64.04
65.28 62.32 61.83 59.86 62.76 62.84 63.66 65.04 62.36 63.18 64.65 64.11 65.95 67.50 67.58 68.18 68.37 67.13 67.49 62.55 65.51 62.29 65.79 63.25 62.13 61.78 64.11 63.84 64.05 64.37 64.59 64.79 64.54 64.37 64.23 65.09 66.34 65.06 64.28 62.50 61.51 61.89 63.93 63.81
63.62 55.11 63.75 63.59 63.86 64.10 63.00 62.11 62.17 61.51 62.19 64.39 65.06 66.85 67.01 67.03 66.55 63.67 60.87 64.62 66.06 66.14 66.13 65.00 64.22 61.47 64.62 64.87 64.37 64.34 63.94 62.34 56.25 62.69 65.24 65.31 62.51 62.57 63.22 63.20 59.91 58.08 61.24 64.23

GFSNGP_sfc_wetblb_165.txt.gz
Wetbulb
47.85 52.25 52.38 50.94 51.26 51.32 47.50 50.10 43.27 48.45 51.46 54.13 56.39 59.53 59.85 61.43 62.64 63.30 64.17 65.24 64.99 65.47 65.80 65.84 66.62 68.42 70.65 70.25 70.36 71.79 71.35 70.56 69.13 68.60 70.27 70.96 70.48 71.04 71.81 72.43 72.47 71.78 70.95 71.81
46.54 50.71 52.51 50.27 52.40 52.49 52.60 52.56 50.73 52.27 50.14 57.94 58.81 59.04 60.36 60.92 62.61 62.26 63.84 65.16 65.09 65.83 65.66 65.44 67.21 68.33 69.20 69.61 69.78 69.88 69.51 68.51 70.21 68.85 68.83 68.76 67.98 66.92 67.23 70.46 70.81 71.45 71.38 70.95
42.22 48.59 48.57 46.56 51.13 52.05 52.84 53.13 50.71 47.57 52.98 57.60 57.58 59.06 60.04 60.99 62.54 62.57 63.54 64.89 64.68 65.22 65.20 65.83 65.67 67.21 67.98 68.94 69.98 69.28 68.22 67.71 68.85 68.20 68.18 68.88 68.49 66.76 66.14 67.16 70.33 70.60 70.65 71.36
44.05 46.71 39.90 48.02 54.61 55.69 53.52 55.17 55.25 54.81 56.26 57.76 58.91 59.74 61.87 62.94 62.06 63.33 64.59 64.63 64.68 64.21 63.75 64.70 65.10 65.02 65.62 67.88 67.14 66.35 65.72 67.39 67.70 66.84 67.46 67.93 67.59 66.51 66.09 68.04 69.43 69.38 70.42 70.60
42.41 42.76 46.58 50.15 53.73 52.97 51.37 51.46 56.26 57.68 58.76 59.48 59.69 59.44 59.44 63.07 63.45 63.57 65.04 64.72 64.81 65.02 65.10 65.80 65.63 65.45 64.27 63.81 63.67 64.23 64.93 65.12 66.19 66.58 64.83 65.15 64.70 64.61 64.73 67.93 70.21 69.12 69.88 69.85
44.02 41.37 39.79 49.12 55.33 58.16 55.83 47.56 57.08 56.96 57.60 59.03 58.87 52.65 54.86 62.04 64.26 65.62 66.19 65.37 65.08 65.10 64.93 64.18 64.09 65.62 64.45 62.90 61.90 62.21 63.85 64.60 65.72 66.28 65.06 64.49 65.66 65.63 66.55 68.90 68.99 68.76 68.13 66.69
45.11 43.25 46.99 54.86 56.35 57.50 47.00 47.27 56.80 56.76 58.46 57.88 56.05 57.88 59.72 64.94 65.30 65.87 65.79 65.68 65.94 65.25 64.42 64.98 64.78 65.30 64.47 63.93 63.13 65.02 66.16 66.45 65.73 65.51 65.71 66.18 66.24 66.33 67.34 67.54 67.73 65.78 63.99 63.13
44.35 42.15 40.54 55.78 56.17 49.98 52.90 55.50 57.17 57.29 62.30 61.71 61.98 63.23 65.49 66.09 66.38 66.52 65.63 66.25 66.40 65.29 65.14 66.05 66.52 66.12 66.43 65.53 66.72 67.88 67.39 66.67 66.94 66.80 66.50 66.66 65.52 66.53 66.19 67.02 65.89 64.30 62.81 60.86
47.87 47.34 53.14 56.35 55.45 56.30 58.09 56.25 57.20 59.24 63.90 63.74 63.10 64.84 65.25 64.58 65.13 64.96 64.58 65.13 65.82 65.09 64.81 65.09 63.82 66.10 66.50 66.54 67.28 66.60 65.12 64.40 65.24 65.28 65.68 66.19 65.56 64.88 64.10 64.45 63.36 62.52 61.37 60.84
48.68 52.33 52.36 54.55 58.82 58.40 57.70 57.98 58.00 65.62 64.86 64.71 63.65 65.49 65.05 64.54 64.18 64.26 64.92 64.55 64.32 63.62 62.41 62.35 62.54 64.52 65.09 65.94 66.02 64.40 63.38 63.39 63.41 63.32 62.12 63.07 63.59 63.49 63.31 62.81 62.16 61.79 60.80 60.94
48.64 52.76 52.53 57.93 54.84 56.47 56.98 60.23 60.84 61.73 65.71 64.91 64.61 64.13 64.40 63.25 61.43 61.24 61.40 61.56 62.20 61.79 61.89 62.64 62.71 62.57 63.89 65.41 65.34 64.69 63.79 63.85 60.51 61.03 58.69 55.05 51.48 50.49 55.82 51.26 51.21 60.54 60.02 60.18
45.51 53.19 51.86 52.03 55.49 57.41 56.61 58.11 59.78 59.51 64.67 64.98 64.84 63.41 63.45 62.13 62.27 62.15 61.88 62.13 61.46 61.01 61.93 61.70 62.82 62.48 62.18 64.96 64.41 62.90 62.30 63.80 63.10 61.90 59.52 57.48 56.67 54.48 47.99 47.21 45.64 44.55 46.79 54.06
51.72 55.87 54.55 55.64 56.79 58.81 58.58 59.26 60.50 64.53 64.71 63.63 64.40 64.08 63.52 62.84 63.01 62.50 62.89 62.08 61.25 60.78 62.45 61.73 62.18 61.05 63.21 64.63 63.81 63.24 62.75 61.32 62.23 62.76 61.88 60.36 58.82 57.69 53.87 51.32 46.38 44.62 43.71 45.92
55.41 56.54 53.65 55.96 54.16 57.48 60.61 60.83 60.55 64.68 65.44 65.13 64.62 64.50 64.26 63.34 62.80 63.12 61.74 61.12 61.97 61.38 61.54 61.28 62.33 62.55 63.36 64.04 64.56 64.00 60.30 59.23 61.57 60.54 61.23 61.42 61.50 61.35 59.04 56.26 54.52 53.03 48.03 48.80
55.75 56.15 56.07 57.26 58.48 58.94 61.35 61.21 59.75 59.38 63.39 63.69 64.79 63.98 63.76 62.64 62.24 62.15 62.50 61.11 60.59 61.58 61.37 61.39 62.28 62.82 63.91 64.08 63.03 63.34 61.59 60.53 61.07 61.34 61.34 60.27 60.80 61.73 60.96 61.10 59.52 56.86 53.25 49.22
55.34 55.68 57.25 57.79 57.88 59.90 60.06 60.35 59.51 56.94 62.75 62.24 62.00 63.20 63.12 62.72 61.89 61.66 60.31 59.44 58.56 60.53 61.17 62.18 62.07 63.15 63.80 63.84 63.15 62.95 61.75 61.62 61.65 61.68 59.94 60.19 60.78 60.17 59.57 60.82 59.82 57.97 56.96 55.80
54.51 54.66 56.52 57.67 58.39 59.35 59.77 59.86 60.00 59.71 62.00 61.52 61.49 62.30 60.95 61.15 61.06 59.40 58.88 59.46 60.06 62.39 62.08 62.43 63.01 63.92 63.07 63.24 63.38 62.82 62.23 61.57 61.64 60.98 60.19 60.33 60.33 60.09 58.75 58.79 58.63 59.04 58.54 56.01
56.48 59.68 58.40 58.51 57.50 58.74 57.96 59.01 60.91 62.06 61.82 61.58 61.48 61.02 61.01 60.91 59.42 58.45 58.17 59.55 61.43 62.34 62.63 63.55 63.82 63.97 63.75 63.50 63.44 62.41 62.15 61.33 60.75 60.39 60.59 60.22 59.81 59.66 59.08 59.12 58.86 57.91 53.22 50.64
58.38 58.08 59.16 59.84 58.72 58.13 56.74 58.96 61.94 62.22 61.52 61.22 61.29 61.35 61.99 61.64 60.47 59.72 60.09 58.99 59.38 59.28 60.63 63.46 64.19 63.76 62.81 63.81 63.15 61.59 62.50 61.06 59.01 60.30 60.62 58.91 56.35 55.76 55.66 55.42 54.92 53.95 51.98 50.09
58.40 60.67 60.94 61.00 62.65 60.47 60.13 60.90 61.30 61.35 61.68 62.17 62.75 62.31 61.57 60.94 60.80 60.91 59.77 58.98 59.13 60.47 62.57 61.40 60.67 61.53 61.43 60.58 60.69 56.75 57.22 58.65 56.56 57.01 56.70 56.25 54.82 54.33 55.06 52.41 54.32 53.79 51.57 50.67
58.33 59.49 60.04 61.28 61.01 61.41 59.64 60.04 61.40 60.04 60.53 61.28 62.10 62.17 62.28 62.17 62.14 62.08 60.80 59.62 61.68 61.61 62.35 60.54 60.75 59.67 60.38 61.28 59.21 56.46 56.82 57.24 56.81 57.11 55.97 55.33 55.38 55.24 55.58 55.68 55.00 54.62 54.63 53.47
58.14 59.33 59.86 60.41 57.87 58.64 59.15 59.91 61.57 60.67 60.14 60.22 61.04 61.22 63.81 62.51 62.48 62.13 62.10 61.21 63.24 58.50 60.74 61.13 61.04 60.41 59.03 62.34 58.95 56.21 55.47 56.00 56.81 56.51 56.09 55.76 54.83 54.50 55.26 55.53 56.08 56.13 55.15 54.89
58.62 60.54 60.33 60.75 59.63 60.23 60.52 60.79 61.09 60.16 59.59 60.25 59.72 59.79 61.46 64.32 63.91 62.34 61.64 63.98 63.65 59.22 62.02 61.88 60.75 59.24 58.84 59.27 59.22 58.59 56.53 55.45 56.24 56.72 57.10 57.37 56.88 56.19 56.40 58.55 58.46 59.20 58.75 58.08
58.77 60.20 61.48 61.99 60.39 60.28 58.09 58.92 59.28 59.68 59.49 60.14 59.77 60.06 59.44 62.74 64.29 65.47 65.43 61.67 59.54 57.18 61.83 62.10 59.55 56.44 56.45 58.50 58.83 58.19 57.93 58.84 59.16 58.63 57.43 54.39 58.23 58.25 58.83 59.19 57.13 56.30 56.11 55.63
59.39 58.05 62.09 61.42 58.11 58.41 59.05 59.44 59.08 58.88 58.96 58.19 58.64 59.92 59.63 63.27 64.89 65.50 65.84 65.71 57.34 57.82 60.80 56.92 56.24 55.30 57.95 58.93 59.26 58.55 58.65 59.32 60.37 60.95 60.79 60.57 58.76 58.31 58.24 58.72 58.88 58.70 59.94 60.23
58.65 59.96 59.08 58.60 58.51 59.90 60.79 59.66 58.85 59.64 60.32 59.25 59.49 60.49 63.03 66.28 66.43 64.42 64.99 61.95 60.92 60.89 63.18 61.88 57.73 57.61 59.22 59.23 59.49 59.79 59.96 59.80 59.22 58.65 59.25 60.40 60.61 59.86 59.44 60.04 59.24 59.81 59.64 59.77
58.47 56.28 58.11 57.32 58.17 59.35 60.27 58.37 59.30 58.65 60.17 61.91 61.50 63.01 63.83 62.91 63.45 62.26 60.23 61.34 61.95 62.85 62.02 62.83 58.87 57.36 59.51 59.83 60.47 60.31 59.55 58.79 56.53 60.50 62.37 60.78 59.76 59.65 60.19 60.20 60.46 60.35 59.11 58.61

GFSNGP_sfc_wetblb_168.txt.gz
Wetbulb
43.78 46.95 50.00 48.47 48.93 48.76 44.85 44.41 42.52 46.42 49.55 53.47 56.53 57.89 59.17 60.56 61.24 62.86 63.88 63.91 64.04 63.78 63.59 64.43 65.61 66.62 68.47 69.23 69.46 69.96 69.42 70.23 70.26 70.57 71.12 70.56 69.52 68.64 68.66 68.77 70.90 70.03 68.23 66.35
43.68 49.58 50.21 47.95 49.76 50.72 50.75 49.81 48.36 48.69 48.43 55.38 58.51 59.97 59.66 60.64 61.91 62.44 62.93 63.81 64.60 64.45 64.62 64.41 65.67 66.28 67.45 68.49 68.44 68.63 69.18 68.51 69.12 68.12 68.28 68.75 68.67 67.96 67.72 67.07 67.00 68.33 68.48 68.86
39.49 45.47 45.89 43.13 48.17 49.43 50.17 51.03 49.86 45.72 49.43 53.15 56.01 58.83 59.48 60.05 61.87 62.27 63.40 63.72 64.24 64.04 64.35 64.28 64.74 65.60 66.23 67.22 67.27 66.93 67.25 67.02 67.85 67.74 67.02 67.40 68.71 68.03 67.87 67.09 66.35 66.19 67.29 69.93
40.70 42.98 36.28 45.99 50.92 52.64 51.63 53.14 52.64 53.26 53.77 55.43 58.59 60.21 60.75 62.09 61.47 63.29 64.07 64.00 64.27 64.12 64.12 63.56 63.19 63.49 64.27 65.06 64.83 65.64 66.22 66.20 67.47 67.08 66.66 67.36 67.72 67.79 66.40 66.41 66.23 64.76 66.51 68.73
40.43 39.01 43.69 47.97 51.04 51.62 50.36 50.14 54.72 54.42 54.73 56.21 58.58 59.09 57.43 62.16 63.36 64.09 64.40 64.39 64.05 63.27 63.42 63.27 62.95 62.81 62.07 61.64 62.47 63.63 64.82 65.96 66.63 66.02 66.95 66.74 64.89 64.60 64.43 64.05 63.60 63.53 65.15 68.57
40.69 38.01 36.66 46.13 53.10 55.44 53.61 45.45 55.34 57.14 56.63 55.29 58.02 53.75 57.16 60.80 63.64 64.30 64.48 64.04 63.39 64.24 64.54 64.06 63.66 62.17 60.51 59.70 61.22 61.37 62.72 63.56 64.74 65.21 65.28 65.37 65.08 64.43 63.54 63.82 67.10 67.65 66.61 65.43
40.02 38.72 43.63 50.20 54.70 54.59 44.42 46.18 55.98 56.75 55.90 55.70 56.57 57.62 58.35 61.16 63.34 64.38 64.33 64.12 64.83 64.55 63.19 62.55 63.63 63.76 61.98 61.68 61.09 63.24 64.64 64.37 63.98 64.07 63.99 63.52 63.55 64.11 63.78 66.79 65.70 64.03 62.50 61.31
40.41 38.64 38.17 53.60 54.57 47.58 49.98 53.41 56.92 59.44 59.74 58.07 58.54 60.39 61.85 63.21 63.28 63.52 63.53 63.83 64.00 63.02 63.06 63.15 63.08 63.38 62.94 63.75 65.36 65.84 65.39 66.68 67.10 65.19 65.32 64.89 65.05 65.90 65.71 65.64 64.25 62.64 61.13 60.86
44.06 43.05 51.35 53.34 52.38 53.02 54.37 52.99 55.26 59.05 61.63 62.78 62.01 62.75 63.42 63.00 63.49 63.80 64.04 64.16 64.81 64.53 63.63 62.87 63.64 64.41 65.14 64.48 65.39 63.57 63.19 64.40 64.76 65.04 64.69 65.60 64.82 64.17 63.75 64.07 63.55 62.49 61.40 59.79
45.34 48.56 50.78 53.03 54.29 55.15 54.90 55.05 57.20 58.52 62.78 64.50 63.71 64.08 63.77 63.79 63.70 63.80 64.25 64.13 63.67 63.32 61.35 60.05 62.96 63.70 63.63 66.28 65.17 62.75 60.88 62.86 63.68 62.20 60.23 58.52 59.46 62.28 62.44 62.46 61.70 61.39 60.49 59.61
45.19 48.49 51.25 54.56 54.91 55.02 55.65 56.64 58.21 58.80 62.00 64.79 64.69 63.85 63.95 63.31 62.45 63.11 62.97 62.68 62.79 61.82 60.41 60.01 61.32 61.88 62.79 63.81 64.44 62.88 61.86 61.89 61.33 58.73 56.63 53.36 50.79 51.78 54.69 51.01 53.06 61.56 61.16 60.20
42.96 48.17 49.32 50.36 53.91 56.97 55.48 55.11 56.87 58.89 59.40 63.64 65.24 63.66 63.61 62.00 61.24 61.07 60.54 60.23 60.24 60.99 60.57 60.50 61.12 60.59 61.23 61.70 62.73 63.47 62.93 61.75 59.24 56.09 56.25 54.04 54.69 52.70 47.76 47.06 45.61 45.64 48.45 53.17
48.59 50.88 52.44 54.19 57.20 57.44 56.13 56.35 58.78 59.49 59.76 61.36 64.44 63.61 62.52 60.14 60.32 59.76 60.17 60.14 60.95 60.68 60.60 60.52 60.16 58.62 60.80 61.98 62.72 62.94 61.08 63.03 62.36 59.49 56.53 56.25 57.03 56.37 54.38 52.24 46.93 44.23 44.46 47.55
52.94 53.20 51.33 54.83 53.58 56.91 57.40 57.90 60.39 61.33 63.67 64.43 64.10 63.06 61.65 61.00 60.21 60.31 59.97 59.92 60.23 60.66 60.02 59.87 59.04 59.43 60.84 62.62 63.30 62.59 62.65 59.14 59.80 59.92 59.14 58.18 57.83 57.79 56.09 54.20 53.60 52.24 48.07 47.84
50.94 53.60 53.68 54.69 56.13 57.42 59.24 60.04 60.19 60.90 61.33 62.39 63.48 62.01 61.73 60.69 60.27 60.22 59.37 60.58 60.64 60.30 59.22 59.59 59.94 60.42 61.22 61.47 62.87 62.00 59.29 59.11 59.21 60.69 59.22 59.11 59.21 60.06 56.93 56.45 55.35 55.24 52.42 48.27
51.06 52.05 53.34 54.00 54.56 57.82 58.88 59.53 58.36 60.79 61.35 61.53 62.32 62.14 62.04 61.95 60.89 60.19 58.87 60.00 58.45 58.20 58.66 59.82 60.22 61.12 61.99 61.83 61.23 61.03 59.70 59.39 59.75 59.55 58.49 58.25 58.05 58.39 57.97 57.61 57.44 56.50 55.16 55.00
50.23 49.50 51.74 51.33 55.49 56.80 57.85 59.01 59.67 60.21 61.40 60.07 61.77 61.99 61.14 60.47 59.33 57.84 56.98 58.79 58.94 58.79 59.67 60.12 60.28 61.79 62.12 61.76 61.45 60.72 59.92 59.97 60.35 59.67 58.77 58.75 59.07 58.88 58.37 58.85 57.67 57.48 56.27 54.29
53.40 54.51 53.60 55.51 56.12 57.17 58.40 59.29 60.56 60.20 59.50 60.50 61.95 60.87 60.02 58.69 57.90 56.28 55.65 57.01 59.34 59.13 60.07 61.23 61.65 61.75 61.07 61.41 61.68 61.10 60.58 59.87 59.79 59.17 58.98 58.89 58.59 58.64 58.31 57.37 57.71 57.67 56.67 54.63
54.66 53.21 57.33 57.85 58.12 57.22 57.81 58.45 59.49 59.64 60.80 61.10 60.18 59.80 59.46 58.12 57.07 56.15 55.89 58.61 59.19 58.69 59.49 61.36 62.44 62.54 61.26 61.97 62.27 60.76 60.59 60.15 59.69 59.32 59.01 57.81 58.42 57.25 57.34 57.32 57.33 57.28 55.49 52.33
54.99 55.58 59.07 58.46 58.46 58.37 57.32 60.68 60.64 61.14 61.60 61.01 59.65 59.53 58.33 57.44 56.58 56.27 55.90 56.93 59.41 60.73 60.51 61.48 62.38 61.33 61.48 61.60 62.92 58.83 57.10 60.02 58.30 57.57 57.78 57.97 56.40 52.73 52.27 51.45 54.44 54.79 53.06 51.21
53.48 55.76 59.21 58.64 59.37 60.09 60.84 60.80 60.40 59.39 60.29 61.13 59.97 59.11 58.39 57.28 57.45 56.73 54.73 55.15 56.93 58.91 61.11 60.12 60.58 60.04 59.98 59.20 57.67 55.24 54.76 54.49 54.33 55.34 56.05 55.66 53.43 52.77 53.35 52.57 52.60 53.17 52.13 50.29
55.90 56.31 58.17 59.91 59.47 59.79 61.10 61.05 60.57 60.57 58.96 59.87 60.63 58.85 58.29 57.74 57.93 58.13 57.84 57.96 58.76 56.95 59.95 59.33 59.04 59.12 58.73 61.43 57.09 55.74 54.52 54.11 53.48 54.61 53.64 53.71 53.13 52.73 52.66 53.51 53.96 52.95 53.29 51.20
56.44 55.85 59.14 60.45 59.70 60.17 61.32 61.36 60.01 59.82 59.52 58.50 59.75 61.05 59.20 59.62 60.00 59.48 58.21 60.17 60.93 58.49 60.52 60.03 59.08 57.82 57.89 57.48 57.20 56.82 55.10 53.64 52.26 53.38 54.53 53.75 53.72 53.15 52.84 53.29 53.50 55.95 55.89 55.16
55.07 58.43 58.95 59.08 60.27 58.62 58.42 59.61 60.47 60.49 60.44 58.70 59.95 60.33 61.47 60.77 59.75 60.70 61.10 58.64 58.20 56.25 60.04 60.14 59.01 57.18 56.12 56.49 56.87 56.78 56.27 55.18 55.34 56.53 54.72 52.30 54.76 54.69 55.17 55.56 55.44 55.04 56.09 55.29
57.12 58.37 58.32 58.30 57.55 57.33 58.44 59.04 59.53 58.21 56.86 57.64 57.08 59.02 59.23 59.61 60.98 61.46 62.26 62.28 54.94 57.21 59.45 56.38 56.27 55.74 56.50 56.85 56.99 56.59 56.35 56.47 57.33 58.12 56.76 55.95 57.03 55.65 55.65 57.38 57.88 57.82 57.49 57.29
56.59 56.39 57.67 58.21 58.05 58.21 57.25 56.65 55.53 56.57 56.39 55.63 56.81 58.03 59.21 60.01 60.49 61.26 61.64 60.47 59.12 58.29 60.65 59.31 59.10 57.19 56.93 57.01 57.22 57.39 56.60 56.35 56.63 57.15 57.44 57.89 57.84 57.60 57.46 57.25 56.99 57.01 57.42 57.56
58.19 55.14 57.19 58.04 58.16 58.64 58.63 56.55 57.01 56.41 57.14 57.77 56.67 58.00 59.78 60.42 60.34 61.07 59.34 60.77 61.31 61.27 61.31 59.93 57.69 57.80 59.77 59.70 59.87 58.95 57.96 55.63 52.88 57.31 57.64 57.31 57.35 59.06 58.05 57.97 57.88 57.59 57.67 58.18

GFSNGP_sfc_wetblb_171.txt.gz
Wetbulb
42.07 44.29 47.76 46.62 47.69 47.51 43.52 43.55 42.41 44.41 47.87 50.88 52.93 53.97 56.02 58.42 59.74 61.16 63.23 63.45 63.21 63.08 62.99 64.06 65.01 66.04 67.69 67.78 67.65 67.76 66.31 65.44 66.03 68.25 70.72 70.15 70.47 68.80 68.53 68.21 69.49 69.18 68.17 67.63
42.61 45.68 48.41 47.14 47.86 47.80 48.09 47.53 45.99 46.64 46.80 52.58 55.61 56.64 57.85 58.95 60.20 61.81 63.05 63.46 63.65 63.46 63.75 64.29 65.23 65.48 66.98 67.25 67.40 68.37 68.57 68.64 69.16 69.41 69.20 69.27 69.90 69.09 68.57 67.40 67.29 68.03 68.28 67.49
38.25 44.39 44.97 41.76 46.52 47.64 48.16 48.76 48.20 44.57 48.45 52.46 55.24 57.09 57.69 59.07 61.08 62.22 63.32 63.80 63.12 63.41 63.23 63.34 64.32 64.99 65.29 65.88 66.46 66.51 66.97 67.99 67.92 67.60 68.46 67.83 68.35 68.89 69.40 68.55 67.22 66.81 66.46 67.67
40.32 40.69 35.85 44.77 48.45 50.19 48.96 51.25 50.98 50.94 51.51 52.98 56.36 59.19 59.03 61.20 61.74 62.69 63.47 63.46 62.99 63.24 63.03 62.80 62.89 63.02 63.31 63.73 64.30 65.57 65.32 65.57 67.08 66.90 65.61 66.18 67.83 68.14 68.30 68.62 68.03 66.49 65.93 66.57
40.80 38.65 42.02 46.52 49.87 50.07 48.72 48.11 52.82 52.38 53.79 54.67 56.31 57.62 55.85 60.60 62.53 63.75 63.73 64.10 63.65 63.60 62.49 61.87 62.38 62.13 61.63 61.83 63.04 65.76 65.88 66.58 66.59 67.27 66.81 66.74 66.41 66.65 65.84 64.35 64.02 63.80 64.39 64.75
39.03 37.53 36.83 44.91 51.03 53.56 50.72 43.84 53.07 53.97 53.09 54.89 57.43 52.79 56.84 60.13 61.95 63.28 63.95 63.64 62.81 63.04 62.27 61.21 60.91 60.28 60.06 60.05 60.87 60.84 61.89 63.85 64.58 64.45 65.59 65.61 65.14 64.56 64.50 65.04 66.06 66.06 66.45 65.60
37.91 37.34 41.78 48.85 53.30 53.44 43.65 44.05 51.75 53.32 53.58 56.00 54.98 58.31 60.37 61.23 61.41 63.36 63.73 62.55 63.32 63.12 62.13 61.52 60.73 59.47 58.75 59.13 59.60 61.45 62.65 63.07 63.22 63.13 62.71 62.40 63.84 64.85 64.24 66.29 64.45 62.67 61.52 60.65
37.31 36.26 36.85 52.66 52.84 46.81 47.59 50.27 52.54 53.64 54.71 54.49 57.30 57.56 59.80 61.59 61.65 62.63 62.45 62.72 63.83 62.75 62.61 62.41 62.40 61.16 60.23 60.63 62.11 64.09 65.39 66.99 65.70 63.85 64.68 64.69 64.09 62.29 62.51 65.20 63.55 61.58 60.67 60.15
42.32 40.57 49.28 51.31 50.42 52.14 51.49 50.46 53.48 54.02 56.00 56.22 57.23 58.47 60.22 61.36 61.85 62.74 62.95 63.20 63.58 62.29 61.07 61.47 62.05 62.52 62.09 63.89 63.89 63.42 62.73 63.43 64.48 64.82 64.79 65.07 64.51 64.66 64.34 64.50 63.05 61.26 60.56 59.27
43.73 46.74 49.99 51.02 53.48 54.29 54.34 53.26 54.43 55.33 57.48 60.40 58.79 60.02 60.34 61.65 62.10 62.51 62.83 62.71 63.30 62.79 61.31 60.79 62.24 63.35 63.33 64.39 62.90 62.51 62.22 61.43 63.24 61.61 59.46 59.38 60.41 62.12 63.03 62.48 61.96 61.38 60.17 59.27
44.74 47.21 48.29 52.95 54.10 53.70 55.69 56.11 55.69 57.34 58.41 58.26 62.05 61.49 62.14 62.34 62.25 62.83 63.04 63.49 63.69 61.96 60.84 60.86 61.58 62.07 63.08 62.28 62.12 62.04 61.83 60.33 60.35 58.74 57.41 54.12 50.83 51.29 55.57 52.76 52.63 60.23 60.60 58.70
42.72 48.31 47.24 48.25 51.91 55.24 54.75 55.08 55.56 56.88 58.02 59.08 62.05 61.65 62.56 62.51 63.26 63.12 63.03 63.07 61.94 60.32 60.37 60.04 60.60 60.82 61.60 61.53 61.20 61.25 60.65 60.57 58.22 56.23 53.25 54.20 54.16 52.94 48.36 46.34 45.23 45.93 47.02 53.57
48.02 51.25 50.71 52.20 54.21 56.77 55.36 55.22 56.51 58.31 58.86 58.49 60.53 63.11 62.40 61.86 62.62 61.11 62.06 61.89 60.94 60.27 60.26 60.13 59.57 59.32 59.68 59.80 60.39 62.37 62.05 60.44 56.95 54.98 53.92 53.27 53.65 54.28 53.90 51.56 46.41 44.43 44.30 46.48
52.32 52.42 50.37 52.48 51.98 55.17 55.89 56.55 57.48 59.78 61.88 61.57 62.90 63.07 62.45 61.30 60.26 61.31 61.02 61.70 61.54 60.55 60.24 59.43 57.94 57.48 60.13 60.88 61.06 62.49 60.40 57.35 58.52 56.85 55.97 55.10 55.61 56.51 56.01 54.64 52.71 52.00 48.25 47.55
48.30 50.93 51.49 52.06 53.11 54.19 56.45 56.84 57.36 58.53 60.75 61.74 63.84 62.35 62.07 60.55 59.98 60.24 59.72 60.64 60.92 60.26 59.16 58.27 57.57 57.98 59.68 59.73 61.62 62.36 60.94 59.00 58.88 58.52 59.45 56.81 57.25 56.51 54.75 53.95 53.48 52.39 51.87 48.80
48.97 49.68 49.93 50.71 51.62 53.98 55.87 56.62 56.92 57.22 61.02 61.11 61.32 61.35 61.71 61.93 60.19 58.55 59.36 60.06 59.01 58.17 57.89 58.19 58.03 59.34 60.15 59.69 59.38 58.97 59.34 58.52 58.39 59.43 58.55 57.09 57.13 57.29 56.55 56.11 54.83 54.49 54.94 54.56
46.15 46.58 48.94 49.43 51.50 52.71 53.97 56.45 57.30 56.63 60.70 60.00 60.33 62.01 62.11 61.32 60.05 58.61 58.82 59.96 59.50 58.75 58.45 58.72 58.84 60.17 60.51 60.41 60.07 59.92 58.96 58.52 59.27 58.15 57.35 57.51 57.49 57.55 56.81 57.61 57.88 56.53 54.35 54.20
49.90 50.45 50.04 52.76 52.13 54.04 55.69 57.47 58.47 58.81 58.97 60.69 61.00 61.82 60.85 59.92 59.22 58.10 58.45 57.08 57.12 56.99 57.99 59.12 60.04 60.76 60.78 60.74 60.38 59.88 59.14 58.45 58.66 58.43 58.52 57.65 57.81 57.81 57.27 57.05 57.11 55.91 54.79 53.73
50.63 50.48 52.27 53.48 54.09 55.46 57.63 58.72 59.05 59.92 60.28 60.36 60.98 60.95 60.79 60.45 59.05 57.34 57.16 57.70 57.13 56.39 57.50 59.32 61.18 61.21 60.01 60.82 60.79 59.90 59.74 59.03 58.49 58.31 58.11 56.79 57.39 57.17 57.05 56.69 56.63 56.69 56.49 54.81
53.39 54.47 53.67 54.97 57.82 56.92 56.83 58.53 59.54 60.09 60.41 60.59 61.20 60.72 59.89 58.19 57.33 56.39 57.51 57.76 58.57 59.23 59.05 60.04 60.91 60.01 59.50 60.97 62.39 60.32 59.90 59.92 59.43 58.37 57.81 57.53 57.21 56.69 53.71 52.78 56.59 56.69 56.43 55.02
55.55 56.06 54.30 56.39 56.81 57.52 58.91 59.75 59.83 59.28 60.14 60.56 60.37 60.03 59.58 58.07 57.20 55.67 54.92 55.97 57.16 58.01 60.07 60.23 60.91 60.48 60.14 60.55 61.31 59.26 55.99 55.89 57.19 57.43 57.40 56.68 56.30 55.05 51.41 51.81 51.78 53.43 54.60 54.24
51.72 54.00 56.15 57.54 57.00 57.94 59.58 60.17 60.10 59.84 59.26 59.86 60.49 60.35 58.84 55.82 54.79 54.16 55.48 56.13 56.52 55.34 59.13 59.71 60.74 60.16 60.41 60.85 56.56 55.22 54.21 53.84 53.27 52.30 53.31 54.36 54.01 53.20 51.44 52.14 51.76 52.17 52.55 51.84
55.78 58.16 59.26 58.10 58.26 58.65 60.08 59.37 59.82 59.60 59.26 59.93 59.64 58.42 57.52 56.89 56.51 54.99 53.87 55.71 57.18 56.32 59.24 59.33 58.43 57.66 58.01 59.08 57.02 55.91 55.40 53.68 52.07 51.28 53.16 53.64 53.29 52.13 51.61 51.62 52.02 52.65 52.19 51.90
56.90 58.37 58.57 59.72 59.89 59.26 58.20 58.92 59.50 60.34 59.82 59.40 60.28 59.79 58.14 56.83 56.90 57.77 58.35 55.47 55.45 55.30 58.56 58.73 57.16 55.87 55.33 56.45 56.15 56.03 56.17 54.65 52.76 52.40 53.80 49.83 53.32 53.22 51.97 51.57 52.09 52.90 53.62 52.89
57.51 58.17 58.95 59.61 59.47 57.85 56.67 58.02 58.09 57.47 57.81 57.06 58.15 60.27 60.03 58.79 59.04 60.15 60.66 59.67 56.04 56.27 59.37 55.87 55.61 55.23 56.47 55.83 55.69 55.99 56.21 55.33 54.87 55.46 55.97 54.74 53.21 53.50 54.78 54.11 55.37 55.29 55.17 55.63
55.71 57.11 57.64 58.05 57.63 57.57 56.79 56.91 55.89 56.66 56.83 55.69 57.23 58.52 59.47 59.38 59.16 59.43 61.18 59.86 60.97 56.43 59.46 58.74 58.41 57.28 57.61 56.87 56.86 56.82 56.27 55.56 55.29 55.60 56.29 56.99 56.51 56.11 56.79 57.29 56.39 56.03 56.23 56.31
55.59 52.93 56.85 57.25 58.06 57.88 56.75 56.55 56.73 56.27 56.07 56.71 57.34 58.97 60.55 61.07 60.06 59.92 58.13 60.58 59.47 60.20 59.43 58.95 58.91 57.77 58.79 58.43 56.98 55.67 54.69 53.80 50.61 54.60 54.68 57.21 58.60 57.88 56.99 55.91 55.93 55.93 55.95 56.29

GFSNGP_sfc_wetblb_174.txt.gz
Wetbulb
42.42 44.35 46.42 45.84 45.48 44.18 42.37 41.78 42.22 44.35 45.67 49.97 52.02 53.49 55.92 58.01 58.77 60.75 62.89 63.54 63.49 63.27 63.82 64.50 65.11 65.87 66.67 67.26 67.73 67.68 66.76 67.41 67.72 69.58 71.11 70.80 70.35 70.42 69.86 69.30 69.72 70.51 70.61 70.49
43.34 46.17 44.93 45.93 47.46 46.73 45.85 45.72 45.83 47.14 48.05 52.04 53.85 55.28 56.41 57.61 59.28 61.21 62.78 63.68 63.83 63.91 64.13 64.77 65.53 65.98 67.30 67.82 68.24 67.93 67.21 66.49 66.90 66.94 68.51 70.74 70.58 70.59 70.03 69.08 69.19 69.89 69.70 69.91
38.45 45.75 46.45 42.11 45.95 46.29 47.18 47.40 47.40 44.94 49.69 52.50 54.36 55.28 55.76 56.84 59.59 61.80 63.28 63.89 63.64 63.73 63.87 64.04 64.98 65.97 65.97 66.96 67.91 67.95 68.04 68.60 68.99 68.72 67.68 68.83 70.18 69.93 69.21 68.47 68.15 68.09 69.14 69.37
39.22 40.23 35.59 44.99 47.97 49.62 49.69 50.21 49.64 50.59 50.88 53.10 55.44 57.15 58.06 58.92 60.12 62.50 63.78 64.04 63.94 63.75 63.72 64.14 64.63 64.96 64.81 65.33 66.14 66.47 66.87 66.94 67.66 68.24 68.31 68.76 68.79 68.97 68.96 68.81 68.22 67.41 67.57 67.97
39.05 36.92 41.56 46.20 49.62 47.89 47.31 47.22 51.80 51.03 52.87 53.69 56.11 58.09 57.29 59.75 62.27 63.60 64.77 64.66 64.34 64.45 63.89 63.37 63.95 63.53 63.33 64.54 65.92 65.91 65.88 66.35 66.64 67.55 66.53 66.84 67.45 67.20 67.72 67.54 67.29 67.09 66.76 66.60
37.49 36.17 36.36 44.99 51.87 53.95 50.81 43.54 51.65 53.38 52.65 53.63 56.30 50.71 54.38 59.38 62.56 63.57 64.73 64.19 63.55 63.75 62.88 62.99 62.23 62.01 62.08 62.07 62.17 62.37 63.85 65.40 64.88 66.10 66.98 66.51 66.55 66.52 65.99 66.31 66.60 66.91 66.35 66.51
38.56 37.55 40.91 48.02 52.16 53.28 43.78 44.22 51.62 53.28 53.69 54.81 54.25 54.83 56.87 60.31 62.22 63.82 64.04 63.72 63.72 62.69 61.80 61.81 60.81 60.80 60.38 60.31 61.20 63.18 64.40 64.76 65.00 65.08 64.52 65.34 65.72 65.97 65.34 65.66 64.35 63.67 62.95 62.06
37.63 36.51 36.27 51.57 51.81 47.09 47.20 50.62 53.25 54.49 54.35 54.41 55.52 56.82 59.27 60.44 62.06 62.95 62.54 62.77 63.09 60.93 60.75 60.71 60.17 60.25 59.99 60.74 62.75 64.84 66.49 66.78 65.69 65.69 65.90 65.95 64.96 64.23 64.83 65.89 63.53 61.90 60.62 59.93
40.63 41.82 48.02 51.38 50.41 51.92 51.82 51.13 52.68 53.29 54.62 55.80 56.36 57.36 58.57 59.59 61.77 62.56 62.74 62.87 62.36 61.50 61.15 61.21 61.31 61.99 61.86 63.35 64.54 65.45 64.61 65.09 65.14 65.27 64.92 65.60 65.78 65.68 64.98 64.80 63.21 62.37 61.83 60.38
43.70 45.87 49.29 52.64 52.99 54.39 54.95 53.91 54.42 54.51 55.74 57.30 56.86 59.84 58.38 60.75 61.69 62.15 62.61 62.34 61.98 61.97 61.50 61.42 62.49 63.37 64.15 65.41 64.43 63.83 63.26 63.48 63.74 61.78 60.52 60.82 61.14 62.31 64.10 63.40 62.81 62.00 60.66 60.14
44.02 46.45 48.38 51.26 53.72 54.35 54.74 55.85 55.80 55.99 56.96 57.61 58.30 61.30 60.61 60.74 61.99 62.54 62.80 62.52 62.32 61.89 61.92 61.97 62.93 63.50 65.20 64.00 63.55 62.40 62.67 62.42 61.27 60.09 58.35 54.89 51.81 52.10 56.28 52.81 53.16 61.57 61.61 60.66
41.17 46.95 46.69 47.78 51.60 54.62 54.16 54.32 54.95 55.08 55.77 57.97 59.64 61.58 62.28 61.16 61.96 62.78 62.52 62.83 62.19 62.23 62.60 62.30 63.02 63.54 63.59 63.34 62.53 61.80 61.15 61.34 60.20 58.67 57.46 56.74 56.22 54.38 47.44 46.46 45.25 44.99 45.72 54.41
45.96 49.15 49.06 51.14 53.02 55.14 54.58 54.85 55.72 55.44 56.38 57.63 60.30 62.19 62.34 61.95 62.81 61.06 63.14 62.77 62.05 62.48 62.64 62.29 62.32 62.82 62.82 62.75 61.95 61.74 60.52 60.33 57.44 56.50 56.28 55.43 56.54 56.89 57.00 52.79 46.57 44.59 43.71 44.07
49.00 49.35 49.63 52.43 50.84 53.38 55.42 55.79 56.09 56.94 58.62 60.56 62.07 62.67 62.06 60.42 61.38 61.94 62.70 62.77 62.48 61.90 61.76 61.64 61.14 61.00 61.74 61.66 61.77 62.25 62.55 55.85 58.75 57.61 57.23 56.99 57.83 57.86 57.33 56.71 57.07 55.40 48.16 46.32
48.04 50.79 51.16 50.58 51.12 52.56 54.40 55.07 54.97 55.54 56.94 60.28 63.00 61.54 61.59 60.92 60.54 60.26 60.91 62.60 62.14 61.59 60.68 60.45 59.56 59.45 61.29 61.86 61.83 62.60 61.94 61.74 60.27 59.10 58.31 57.49 58.41 57.98 57.62 57.11 56.92 55.72 54.32 50.44
47.86 48.32 49.35 48.93 49.95 51.34 52.09 53.98 54.68 54.78 57.01 60.60 61.59 61.48 61.89 61.90 61.72 60.66 60.67 60.63 60.27 59.69 59.91 59.48 58.72 59.75 61.60 60.77 61.87 62.81 61.54 59.18 59.76 60.86 60.19 59.53 59.25 58.75 58.00 57.75 57.11 56.11 55.64 55.92
44.57 44.42 45.89 46.96 48.87 50.13 51.85 53.79 55.05 55.28 57.35 60.26 60.60 60.84 60.34 59.25 58.95 59.32 59.57 60.82 60.73 60.55 60.19 59.43 59.23 60.74 61.57 60.77 61.45 61.26 61.04 60.80 59.69 60.49 60.04 60.07 60.06 60.13 59.77 59.46 59.41 58.66 57.96 56.79
48.86 48.71 48.79 49.72 50.57 51.45 52.50 53.81 55.09 56.91 58.54 60.76 61.47 61.67 60.97 59.45 59.07 59.40 59.67 60.48 58.72 58.75 59.27 59.90 60.43 61.61 61.86 61.67 61.87 61.70 61.13 60.88 60.85 60.80 60.38 59.92 60.44 60.66 60.26 60.01 60.00 59.15 58.28 56.30
54.02 52.80 51.55 50.43 51.61 52.04 53.21 54.93 56.88 58.17 58.88 60.78 60.57 60.87 60.80 60.59 60.10 59.97 59.41 58.84 58.47 58.08 58.85 60.03 60.82 61.74 61.82 62.17 62.08 61.93 61.38 60.70 61.06 60.99 60.94 58.21 59.98 60.45 60.22 60.20 60.22 60.26 59.94 58.39
54.07 54.47 51.42 50.93 53.22 53.56 53.98 56.80 58.72 58.49 59.47 60.55 60.67 60.61 59.97 60.34 59.86 59.36 59.06 58.23 59.29 60.14 59.56 60.55 62.12 61.57 61.87 62.81 62.12 61.98 61.88 61.67 60.95 60.72 60.58 60.28 60.02 60.26 59.92 54.71 59.08 60.05 59.77 59.66
54.50 55.22 54.32 53.06 53.38 56.21 57.12 57.60 58.57 58.87 59.38 60.28 60.84 60.42 60.23 59.67 59.54 58.92 58.19 57.18 58.86 59.14 60.32 60.13 61.66 61.24 61.49 62.22 62.42 62.06 61.89 61.60 61.36 61.12 60.30 59.90 59.88 59.66 59.62 58.54 56.73 57.04 58.70 59.44
53.66 54.21 55.54 54.98 55.52 56.21 57.50 58.73 59.33 59.29 59.25 60.05 60.71 61.08 59.31 57.46 57.44 57.76 59.09 59.62 59.02 55.56 59.86 61.58 61.94 60.62 61.55 61.62 62.17 61.56 60.42 58.94 58.16 57.28 56.34 57.24 59.04 59.59 59.29 58.81 57.02 56.01 56.50 57.09
51.90 54.00 54.95 55.74 55.56 56.51 58.33 59.04 58.99 59.60 59.28 60.06 60.16 60.02 59.69 57.69 56.70 55.47 55.37 57.22 59.03 56.92 61.13 61.54 59.44 58.25 58.62 61.84 60.11 59.21 58.70 57.77 57.11 56.26 55.80 56.18 56.72 57.52 57.98 57.60 56.75 56.67 56.89 56.98
57.66 57.81 57.60 58.28 58.64 58.64 57.20 58.50 59.60 58.95 60.07 60.49 60.53 59.58 58.10 56.65 56.72 57.74 57.85 54.58 54.38 55.56 60.59 60.46 58.27 56.12 56.51 61.28 60.41 58.83 58.38 58.41 57.77 56.59 55.98 49.72 57.00 57.10 56.91 56.93 56.15 56.26 56.60 55.57
57.65 58.10 59.14 59.22 58.50 58.16 58.46 58.40 58.43 58.25 58.90 59.77 59.90 60.28 59.49 59.64 58.62 59.25 59.49 58.40 53.53 56.92 60.37 55.18 55.50 54.67 59.66 60.05 59.55 59.41 58.95 59.06 59.06 58.25 57.72 58.70 58.90 57.57 56.93 56.31 56.59 58.00 58.21 58.25
57.62 57.58 58.26 58.90 58.18 58.08 58.16 57.98 57.11 57.88 57.76 57.60 58.64 60.28 60.30 60.41 60.65 61.64 61.77 59.03 59.35 56.87 60.55 60.22 59.86 58.24 58.96 59.02 58.54 58.17 58.36 58.43 57.72 57.43 57.10 59.27 58.74 57.92 58.18 58.62 58.81 59.25 59.78 59.72
56.03 52.79 57.26 57.50 58.10 57.96 58.21 57.45 57.57 57.12 57.26 58.20 58.22 59.21 60.58 61.30 60.01 59.89 56.98 62.18 61.20 60.88 60.65 60.14 59.50 57.91 58.94 58.65 57.47 56.76 56.25 55.72 52.21 57.62 58.54 58.94 57.86 57.53 57.60 57.18 57.01 57.05 56.00 53.43